| time (UTC) | temp F | wind direction | speed MPH | gust MPH | rain 1hr in | rain 24hr in | rain mn in | humidity % | barometer mb |
| 20260506152537 | 67 | 343 | 3.0 | 9.0 | 0.00 | 0.00 | 0.00 | 44 | 1013.8 |
| 20260506152017 | 66 | 241 | 2.0 | 9.0 | 0.00 | 0.00 | 0.00 | 45 | 1013.9 |
| 20260506151614 | 66 | 257 | 1.0 | 4.0 | 0.00 | 0.00 | 0.00 | 46 | 1013.8 |
| 20260506151029 | 65 | 216 | 2.0 | 4.0 | 0.00 | 0.00 | 0.00 | 46 | 1013.9 |
| 20260506150534 | 65 | 328 | 1.0 | 6.0 | 0.00 | 0.00 | 0.00 | 46 | 1013.9 |
| 20260506150110 | 64 | 230 | 2.0 | 6.0 | 0.00 | 0.00 | 0.00 | 46 | 1014.0 |
| 20260506145531 | 64 | 352 | 1.0 | 5.0 | 0.00 | 0.00 | 0.00 | 48 | 1013.9 |
| 20260506145023 | 63 | 351 | 1.0 | 7.0 | 0.00 | 0.00 | 0.00 | 49 | 1013.9 |
| 20260506144612 | 63 | 57 | 1.0 | 7.0 | 0.00 | 0.00 | 0.00 | 48 | 1013.9 |
| 20260506144042 | 63 | 252 | 1.0 | 6.0 | 0.00 | 0.00 | 0.00 | 48 | 1013.9 |
| 20260506143533 | 62 | 215 | 1.0 | 5.0 | 0.00 | 0.00 | 0.00 | 49 | 1014.0 |
| 20260506143047 | 62 | 185 | 1.0 | 5.0 | 0.00 | 0.00 | 0.00 | 48 | 1013.9 |
| 20260506142532 | 62 | 266 | 1.0 | 5.0 | 0.00 | 0.00 | 0.00 | 49 | 1013.9 |
| 20260506142019 | 62 | 181 | 2.0 | 8.0 | 0.00 | 0.00 | 0.00 | 48 | 1013.8 |
| 20260506141610 | 61 | 238 | 3.0 | 8.0 | 0.00 | 0.00 | 0.00 | 50 | 1014.0 |
| 20260506141110 | 61 | 244 | 2.0 | 8.0 | 0.00 | 0.00 | 0.00 | 51 | 1013.9 |
| 20260506140531 | 59 | 304 | 2.0 | 8.0 | 0.00 | 0.00 | 0.00 | 52 | 1014.0 |
| 20260506140104 | 59 | 208 | 3.0 | 5.0 | 0.00 | 0.00 | 0.00 | 54 | 1014.1 |
| 20260506135524 | 59 | 216 | 2.0 | 5.0 | 0.00 | 0.00 | 0.00 | 55 | 1013.9 |
| 20260506135019 | 58 | 229 | 2.0 | 5.0 | 0.00 | 0.00 | 0.00 | 56 | 1014.0 |
| 20260506134607 | 58 | 277 | 2.0 | 5.0 | 0.00 | 0.00 | 0.00 | 55 | 1014.0 |
| 20260506134042 | 57 | 234 | 2.0 | 6.0 | 0.00 | 0.00 | 0.00 | 57 | 1014.1 |
| 20260506133537 | 56 | 209 | 2.0 | 6.0 | 0.00 | 0.00 | 0.00 | 58 | 1014.0 |
| 20260506133103 | 55 | 215 | 3.0 | 5.0 | 0.00 | 0.00 | 0.00 | 58 | 1014.0 |
| 20260506132538 | 55 | 246 | 2.0 | 5.0 | 0.00 | 0.00 | 0.00 | 58 | 1014.0 |
| 20260506132019 | 54 | 234 | 2.0 | 5.0 | 0.00 | 0.00 | 0.00 | 58 | 1014.0 |
| 20260506131606 | 54 | 227 | 2.0 | 5.0 | 0.00 | 0.00 | 0.00 | 59 | 1013.9 |
| 20260506131042 | 54 | 215 | 3.0 | 5.0 | 0.00 | 0.00 | 0.00 | 60 | 1013.9 |
| 20260506130518 | 54 | 239 | 3.0 | 8.0 | 0.00 | 0.00 | 0.00 | 60 | 1013.9 |
| 20260506130113 | 53 | 227 | 4.0 | 8.0 | 0.00 | 0.00 | 0.00 | 60 | 1013.9 |
| 20260506125532 | 53 | 257 | 3.0 | 5.0 | 0.00 | 0.00 | 0.00 | 60 | 1014.0 |
| 20260506125030 | 54 | 225 | 3.0 | 5.0 | 0.00 | 0.00 | 0.00 | 59 | 1014.1 |
| 20260506124627 | 54 | 229 | 3.0 | 5.0 | 0.00 | 0.00 | 0.00 | 59 | 1014.1 |
| 20260506124039 | 53 | 263 | 3.0 | 5.0 | 0.00 | 0.00 | 0.00 | 60 | 1014.1 |
| 20260506123541 | 53 | 205 | 3.0 | 5.0 | 0.00 | 0.00 | 0.00 | 60 | 1013.9 |
| 20260506123101 | 53 | 245 | 3.0 | 4.0 | 0.00 | 0.00 | 0.00 | 61 | 1014.0 |
| 20260506122600 | 53 | 252 | 3.0 | 6.0 | 0.00 | 0.00 | 0.00 | 60 | 1013.9 |
| 20260506122041 | 54 | 259 | 2.0 | 6.0 | 0.00 | 0.00 | 0.00 | 59 | 1013.9 |
| 20260506121559 | 54 | 258 | 3.0 | 7.0 | 0.00 | 0.00 | 0.00 | 59 | 1013.8 |
| 20260506121021 | 53 | 221 | 2.0 | 4.0 | 0.00 | 0.00 | 0.00 | 59 | 1013.8 |
| 20260506120527 | 53 | 219 | 2.0 | 4.0 | 0.00 | 0.00 | 0.00 | 59 | 1013.8 |
| 20260506120121 | 54 | 267 | 2.0 | 4.0 | 0.00 | 0.00 | 0.00 | 59 | 1013.9 |
| 20260506115542 | 54 | 221 | 2.0 | 4.0 | 0.00 | 0.00 | 0.00 | 59 | 1013.9 |
| 20260506115024 | 53 | 248 | 2.0 | 4.0 | 0.00 | 0.00 | 0.00 | 60 | 1013.8 |
| 20260506114613 | 53 | 234 | 2.0 | 4.0 | 0.00 | 0.00 | 0.00 | 61 | 1013.8 |
| 20260506114031 | 54 | 234 | 2.0 | 4.0 | 0.00 | 0.00 | 0.00 | 60 | 1013.7 |
| 20260506113515 | 54 | 240 | 2.0 | 4.0 | 0.00 | 0.00 | 0.00 | 59 | 1013.7 |
| 20260506113102 | 54 | 229 | 2.0 | 5.0 | 0.00 | 0.00 | 0.00 | 59 | 1013.7 |
| 20260506112524 | 54 | 263 | 2.0 | 5.0 | 0.00 | 0.00 | 0.00 | 59 | 1013.7 |
| 20260506112045 | 54 | 248 | 2.0 | 4.0 | 0.00 | 0.00 | 0.00 | 59 | 1013.9 |
| 20260506111618 | 54 | 239 | 2.0 | 4.0 | 0.00 | 0.00 | 0.00 | 59 | 1013.8 |
| 20260506111020 | 54 | 231 | 2.0 | 4.0 | 0.00 | 0.00 | 0.00 | 60 | 1013.7 |
| 20260506110533 | 54 | 252 | 2.0 | 4.0 | 0.00 | 0.00 | 0.00 | 61 | 1013.6 |
| 20260506110123 | 54 | 265 | 2.0 | 5.0 | 0.00 | 0.00 | 0.00 | 60 | 1013.6 |
| 20260506105530 | 54 | 238 | 3.0 | 5.0 | 0.00 | 0.00 | 0.00 | 60 | 1013.5 |
| 20260506105026 | 54 | 229 | 2.0 | 4.0 | 0.00 | 0.00 | 0.00 | 59 | 1013.7 |
| 20260506104622 | 55 | 251 | 2.0 | 4.0 | 0.00 | 0.00 | 0.00 | 59 | 1013.5 |
| 20260506104030 | 55 | 232 | 2.0 | 5.0 | 0.00 | 0.00 | 0.00 | 57 | 1013.5 |
| 20260506103518 | 55 | 232 | 2.0 | 5.0 | 0.00 | 0.00 | 0.00 | 57 | 1013.7 |
| 20260506103135 | 55 | 239 | 2.0 | 4.0 | 0.00 | 0.00 | 0.00 | 59 | 1013.7 |
| 20260506102517 | 54 | 238 | 2.0 | 4.0 | 0.00 | 0.00 | 0.00 | 60 | 1013.7 |
| 20260506102017 | 54 | 257 | 2.0 | 4.0 | 0.00 | 0.00 | 0.00 | 61 | 1013.7 |
| 20260506101637 | 54 | 255 | 2.0 | 5.0 | 0.00 | 0.00 | 0.00 | 60 | 1013.6 |
| 20260506101046 | 54 | 229 | 3.0 | 5.0 | 0.00 | 0.00 | 0.00 | 60 | 1013.6 |
| 20260506100525 | 54 | 236 | 3.0 | 5.0 | 0.00 | 0.00 | 0.00 | 59 | 1013.6 |
| 20260506100121 | 55 | 234 | 3.0 | 5.0 | 0.00 | 0.00 | 0.00 | 59 | 1013.7 |
| 20260506095535 | 54 | 240 | 3.0 | 5.0 | 0.00 | 0.00 | 0.00 | 59 | 1013.6 |
| 20260506095016 | 55 | 235 | 3.0 | 5.0 | 0.00 | 0.00 | 0.00 | 59 | 1013.6 |
| 20260506094604 | 54 | 242 | 3.0 | 4.0 | 0.00 | 0.00 | 0.00 | 60 | 1013.6 |
| 20260506094029 | 55 | 239 | 2.0 | 4.0 | 0.00 | 0.00 | 0.00 | 59 | 1013.6 |
| 20260506093531 | 55 | 252 | 1.0 | 5.0 | 0.00 | 0.00 | 0.00 | 59 | 1013.6 |
| 20260506093115 | 55 | 242 | 2.0 | 4.0 | 0.00 | 0.00 | 0.00 | 59 | 1013.6 |
| 20260506092540 | 55 | 239 | 2.0 | 4.0 | 0.00 | 0.00 | 0.00 | 58 | 1013.6 |
| 20260506092033 | 55 | 221 | 3.0 | 4.0 | 0.00 | 0.00 | 0.00 | 60 | 1013.6 |
| 20260506091628 | 55 | 233 | 2.0 | 4.0 | 0.00 | 0.00 | 0.00 | 60 | 1013.6 |
| 20260506091019 | 55 | 229 | 2.0 | 4.0 | 0.00 | 0.00 | 0.00 | 59 | 1013.5 |
| 20260506090541 | 56 | 229 | 2.0 | 4.0 | 0.00 | 0.00 | 0.00 | 58 | 1013.5 |
| 20260506090129 | 57 | 217 | 2.0 | 4.0 | 0.00 | 0.00 | 0.00 | 57 | 1013.5 |
| 20260506085518 | 57 | 217 | 2.0 | 4.0 | 0.00 | 0.00 | 0.00 | 56 | 1013.4 |
| 20260506085030 | 57 | 228 | 3.0 | 4.0 | 0.00 | 0.00 | 0.00 | 56 | 1013.5 |
| 20260506084629 | 57 | 249 | 2.0 | 4.0 | 0.00 | 0.00 | 0.00 | 55 | 1013.5 |
| 20260506084028 | 57 | 222 | 2.0 | 4.0 | 0.00 | 0.00 | 0.00 | 56 | 1013.4 |
| 20260506083534 | 57 | 255 | 1.0 | 3.0 | 0.00 | 0.00 | 0.00 | 56 | 1013.3 |
| 20260506083142 | 57 | 255 | 1.0 | 4.0 | 0.00 | 0.00 | 0.00 | 56 | 1013.4 |
| 20260506082547 | 56 | 232 | 2.0 | 4.0 | 0.00 | 0.00 | 0.00 | 58 | 1013.4 |
| 20260506082032 | 56 | 227 | 2.0 | 4.0 | 0.00 | 0.00 | 0.00 | 58 | 1013.3 |
| 20260506081610 | 56 | 229 | 2.0 | 4.0 | 0.00 | 0.00 | 0.00 | 59 | 1013.3 |
| 20260506081045 | 56 | 288 | 1.0 | 4.0 | 0.00 | 0.00 | 0.00 | 58 | 1013.3 |
| 20260506080519 | 56 | 244 | 2.0 | 4.0 | 0.00 | 0.00 | 0.00 | 59 | 1013.2 |
| 20260506080109 | 57 | 245 | 1.0 | 3.0 | 0.00 | 0.00 | 0.00 | 58 | 1013.2 |
| 20260506073119 | 58 | 205 | 2.0 | 4.0 | 0.00 | 0.00 | 0.00 | 57 | 1013.0 |
| 20260506072525 | 58 | 225 | 2.0 | 4.0 | 0.00 | 0.00 | 0.00 | 57 | 1013.1 |
| 20260506072042 | 58 | 224 | 2.0 | 4.0 | 0.00 | 0.00 | 0.00 | 57 | 1013.0 |
| 20260506071558 | 58 | 219 | 2.0 | 4.0 | 0.00 | 0.00 | 0.00 | 58 | 1013.1 |
| 20260506071026 | 57 | 271 | 1.0 | 4.0 | 0.00 | 0.00 | 0.00 | 58 | 1013.1 |
| 20260506070545 | 58 | 238 | 2.0 | 4.0 | 0.00 | 0.00 | 0.00 | 58 | 1013.1 |
| 20260506070107 | 58 | 246 | 2.0 | 4.0 | 0.00 | 0.00 | 0.00 | 56 | 1013.0 |
| 20260506062025 | 60 | 229 | 1.0 | 4.0 | 0.00 | 0.00 | 0.00 | 53 | 1012.8 |
| 20260506061557 | 61 | 213 | 2.0 | 4.0 | 0.00 | 0.00 | 0.00 | 52 | 1012.8 |
| 20260506061041 | 61 | 255 | 1.0 | 4.0 | 0.00 | 0.00 | 0.00 | 52 | 1012.8 |
| 20260506060532 | 61 | 223 | 2.0 | 5.0 | 0.00 | 0.00 | 0.00 | 52 | 1012.8 |
| 20260506060125 | 62 | 246 | 2.0 | 5.0 | 0.00 | 0.00 | 0.00 | 51 | 1012.9 |
| 20260506051043 | 64 | 248 | 2.0 | 4.0 | 0.00 | 0.00 | 0.00 | 48 | 1012.6 |
| 20260506050520 | 64 | 238 | 2.0 | 4.0 | 0.00 | 0.00 | 0.00 | 48 | 1012.6 |
| 20260506050144 | 64 | 237 | 2.0 | 4.0 | 0.00 | 0.00 | 0.00 | 48 | 1012.4 |
| 20260506045025 | 65 | 252 | 2.0 | 4.0 | 0.00 | 0.00 | 0.00 | 47 | 1012.4 |
| 20260506044640 | 66 | 292 | 1.0 | 3.0 | 0.00 | 0.00 | 0.00 | 46 | 1012.3 |
| 20260506044025 | 65 | 286 | 1.0 | 5.0 | 0.00 | 0.00 | 0.00 | 45 | 1012.4 |
| 20260506043525 | 65 | 289 | 2.0 | 5.0 | 0.00 | 0.00 | 0.00 | 46 | 1012.4 |
| 20260506043112 | 65 | 246 | 2.0 | 5.0 | 0.00 | 0.00 | 0.00 | 46 | 1012.2 |
| 20260506042522 | 66 | 286 | 1.0 | 4.0 | 0.00 | 0.00 | 0.00 | 45 | 1012.1 |
| 20260506042031 | 66 | 261 | 2.0 | 4.0 | 0.00 | 0.00 | 0.00 | 45 | 1012.0 |
| 20260506041603 | 66 | 275 | 1.0 | 4.0 | 0.00 | 0.00 | 0.00 | 44 | 1012.0 |
| 20260506041028 | 67 | 262 | 2.0 | 4.0 | 0.00 | 0.00 | 0.00 | 44 | 1012.0 |
| 20260506040530 | 67 | 273 | 1.0 | 4.0 | 0.00 | 0.00 | 0.00 | 43 | 1011.9 |
| 20260506040058 | 67 | 294 | 1.0 | 4.0 | 0.00 | 0.00 | 0.00 | 43 | 1011.8 |
| 20260506035533 | 67 | 236 | 3.0 | 4.0 | 0.00 | 0.00 | 0.00 | 42 | 1011.8 |
| 20260506035033 | 68 | 254 | 2.0 | 5.0 | 0.00 | 0.00 | 0.00 | 41 | 1011.7 |
| 20260506034557 | 68 | 254 | 2.0 | 4.0 | 0.00 | 0.00 | 0.00 | 41 | 1011.6 |
| 20260506034034 | 69 | 200 | 2.0 | 4.0 | 0.00 | 0.00 | 0.00 | 40 | 1011.5 |
| 20260506033537 | 69 | 276 | 1.0 | 4.0 | 0.00 | 0.00 | 0.00 | 40 | 1011.3 |
| 20260506033059 | 70 | 262 | 1.0 | 4.0 | 0.00 | 0.00 | 0.00 | 38 | 1011.2 |
| 20260506032546 | 70 | 253 | 2.0 | 4.0 | 0.00 | 0.00 | 0.00 | 38 | 1011.3 |
| 20260506032023 | 70 | 252 | 1.0 | 4.0 | 0.00 | 0.00 | 0.00 | 37 | 1011.0 |
| 20260506031632 | 70 | 262 | 2.0 | 4.0 | 0.00 | 0.00 | 0.00 | 37 | 1011.1 |
| 20260506031043 | 70 | 282 | 2.0 | 4.0 | 0.00 | 0.00 | 0.00 | 36 | 1011.3 |
| 20260506030533 | 71 | 260 | 2.0 | 4.0 | 0.00 | 0.00 | 0.00 | 36 | 1011.1 |
| 20260506030140 | 71 | 268 | 2.0 | 4.0 | 0.00 | 0.00 | 0.00 | 37 | 1010.9 |
| 20260506025538 | 71 | 281 | 2.0 | 4.0 | 0.00 | 0.00 | 0.00 | 37 | 1010.9 |
| 20260506025033 | 71 | 286 | 2.0 | 4.0 | 0.00 | 0.00 | 0.00 | 36 | 1010.9 |
| 20260506024622 | 71 | 265 | 2.0 | 4.0 | 0.00 | 0.00 | 0.00 | 36 | 1010.7 |
| 20260506024027 | 71 | 292 | 2.0 | 4.0 | 0.00 | 0.00 | 0.00 | 36 | 1010.7 |
| 20260506023526 | 71 | 275 | 2.0 | 4.0 | 0.00 | 0.00 | 0.00 | 37 | 1010.8 |
| 20260506023118 | 71 | 269 | 2.0 | 6.0 | 0.00 | 0.00 | 0.00 | 37 | 1010.8 |
| 20260506022537 | 72 | 250 | 3.0 | 6.0 | 0.00 | 0.00 | 0.00 | 35 | 1010.8 |
| 20260506022033 | 73 | 249 | 2.0 | 7.0 | 0.00 | 0.00 | 0.00 | 34 | 1010.7 |
| 20260506021606 | 73 | 264 | 2.0 | 7.0 | 0.00 | 0.00 | 0.00 | 33 | 1010.8 |
| 20260506021031 | 73 | 247 | 2.0 | 5.0 | 0.00 | 0.00 | 0.00 | 33 | 1010.8 |
| 20260506020526 | 73 | 25 | 2.0 | 5.0 | 0.00 | 0.00 | 0.00 | 33 | 1010.9 |
| 20260506020140 | 74 | 248 | 2.0 | 8.0 | 0.00 | 0.00 | 0.00 | 32 | 1010.8 |
| 20260506015530 | 74 | 252 | 2.0 | 8.0 | 0.00 | 0.00 | 0.00 | 31 | 1010.6 |
| 20260506015041 | 75 | 309 | 2.0 | 6.0 | 0.00 | 0.00 | 0.00 | 31 | 1010.5 |
| 20260506014625 | 75 | 305 | 2.0 | 5.0 | 0.00 | 0.00 | 0.00 | 31 | 1010.6 |
| 20260506014037 | 75 | 273 | 2.0 | 6.0 | 0.00 | 0.00 | 0.00 | 32 | 1010.6 |
| 20260506013524 | 75 | 294 | 2.0 | 6.0 | 0.00 | 0.00 | 0.00 | 29 | 1010.4 |
| 20260506013107 | 76 | 284 | 1.0 | 5.0 | 0.00 | 0.00 | 0.00 | 32 | 1010.4 |
| 20260506012524 | 77 | 242 | 3.0 | 5.0 | 0.00 | 0.00 | 0.00 | 30 | 1010.7 |
| 20260506012039 | 77 | 318 | 3.0 | 6.0 | 0.00 | 0.00 | 0.00 | 28 | 1010.4 |
| 20260506011638 | 78 | 238 | 1.0 | 6.0 | 0.00 | 0.00 | 0.00 | 28 | 1010.3 |
| 20260506011032 | 78 | 271 | 2.0 | 7.0 | 0.00 | 0.00 | 0.00 | 28 | 1010.6 |
| 20260506010526 | 79 | 309 | 1.0 | 6.0 | 0.00 | 0.00 | 0.00 | 28 | 1010.4 |
| 20260506010153 | 79 | 282 | 2.0 | 6.0 | 0.00 | 0.00 | 0.00 | 26 | 1010.4 |
| 20260506005521 | 80 | 5 | 1.0 | 4.0 | 0.00 | 0.00 | 0.00 | 29 | 1010.5 |
| 20260506005033 | 80 | 203 | 1.0 | 6.0 | 0.00 | 0.00 | 0.00 | 25 | 1010.5 |
| 20260506004602 | 81 | 288 | 2.0 | 6.0 | 0.00 | 0.00 | 0.00 | 26 | 1010.5 |
| 20260506004025 | 81 | 259 | 1.0 | 4.0 | 0.00 | 0.00 | 0.00 | 25 | 1010.4 |
| 20260506003525 | 82 | 273 | 0.0 | 6.0 | 0.00 | 0.00 | 0.00 | 25 | 1010.4 |
| 20260506003055 | 82 | 55 | 2.0 | 10.0 | 0.00 | 0.00 | 0.00 | 24 | 1010.5 |
| 20260506002533 | 82 | 40 | 3.0 | 10.0 | 0.00 | 0.00 | 0.00 | 23 | 1010.4 |
| 20260506002040 | 82 | 288 | 2.0 | 7.0 | 0.00 | 0.00 | 0.00 | 25 | 1010.7 |
| 20260506001626 | 82 | 30 | 1.0 | 5.0 | 0.00 | 0.00 | 0.00 | 24 | 1010.6 |
| 20260506001042 | 82 | 338 | 0.0 | 7.0 | 0.00 | 0.00 | 0.00 | 25 | 1010.8 |
| 20260506000551 | 82 | 310 | 2.0 | 9.0 | 0.00 | 0.00 | 0.00 | 23 | 1010.8 |
| 20260506000057 | 83 | 284 | 4.0 | 9.0 | 0.00 | 0.00 | 0.00 | 21 | 1010.9 |
| 20260505235544 | 84 | 5 | 3.0 | 6.0 | 0.00 | 0.00 | 0.00 | 22 | 1011.0 |
| 20260505235032 | 84 | 259 | 2.0 | 8.0 | 0.00 | 0.00 | 0.00 | 22 | 1011.0 |
| 20260505234608 | 85 | 333 | 3.0 | 8.0 | 0.00 | 0.00 | 0.00 | 21 | 1011.0 |
| 20260505234040 | 85 | 26 | 1.0 | 6.0 | 0.00 | 0.00 | 0.00 | 22 | 1011.0 |
| 20260505233532 | 85 | 327 | 3.0 | 6.0 | 0.00 | 0.00 | 0.00 | 22 | 1010.9 |
| 20260505233124 | 85 | 303 | 1.0 | 5.0 | 0.00 | 0.00 | 0.00 | 21 | 1011.1 |
| 20260505232519 | 85 | 269 | 1.0 | 6.0 | 0.00 | 0.00 | 0.00 | 21 | 1011.1 |
| 20260505232036 | 85 | 297 | 3.0 | 8.0 | 0.00 | 0.00 | 0.00 | 22 | 1011.2 |
| 20260505231616 | 85 | 309 | 1.0 | 6.0 | 0.00 | 0.00 | 0.00 | 22 | 1011.1 |
| 20260505231033 | 85 | 285 | 1.0 | 6.0 | 0.00 | 0.00 | 0.00 | 22 | 1011.1 |
| 20260505230518 | 84 | 336 | 2.0 | 9.0 | 0.00 | 0.00 | 0.00 | 24 | 1011.2 |
| 20260505230137 | 84 | 78 | 1.0 | 9.0 | 0.00 | 0.00 | 0.00 | 21 | 1011.2 |
| 20260505225533 | 84 | 201 | 1.0 | 7.0 | 0.00 | 0.00 | 0.00 | 24 | 1011.4 |
| 20260505225035 | 83 | 252 | 3.0 | 7.0 | 0.00 | 0.00 | 0.00 | 23 | 1011.1 |
| 20260505224629 | 83 | 360 | 1.0 | 4.0 | 0.00 | 0.00 | 0.00 | 22 | 1011.2 |
| 20260505224040 | 82 | 58 | 2.0 | 6.0 | 0.00 | 0.00 | 0.00 | 22 | 1011.2 |
| 20260505223544 | 81 | 205 | 3.0 | 7.0 | 0.00 | 0.00 | 0.00 | 24 | 1011.3 |
| 20260505223131 | 81 | 224 | 1.0 | 3.0 | 0.00 | 0.00 | 0.00 | 25 | 1011.4 |
| 20260505222524 | 81 | 90 | 1.0 | 3.0 | 0.00 | 0.00 | 0.00 | 24 | 1011.4 |
| 20260505222036 | 81 | 306 | 0.0 | 3.0 | 0.00 | 0.00 | 0.00 | 24 | 1011.4 |
| 20260505221630 | 82 | 351 | 1.0 | 4.0 | 0.00 | 0.00 | 0.00 | 23 | 1011.7 |
| 20260505221029 | 83 | 334 | 1.0 | 5.0 | 0.00 | 0.00 | 0.00 | 23 | 1011.6 |
| 20260505220518 | 83 | 229 | 2.0 | 5.0 | 0.00 | 0.00 | 0.00 | 23 | 1011.6 |
| 20260505220110 | 84 | 333 | 1.0 | 4.0 | 0.00 | 0.00 | 0.00 | 22 | 1011.8 |
| 20260505215523 | 84 | 333 | 2.0 | 5.0 | 0.00 | 0.00 | 0.00 | 22 | 1011.8 |
| 20260505215033 | 84 | 28 | 1.0 | 5.0 | 0.00 | 0.00 | 0.00 | 23 | 1011.8 |
| 20260505214624 | 83 | 237 | 2.0 | 7.0 | 0.00 | 0.00 | 0.00 | 22 | 1011.9 |
| 20260505214041 | 83 | 288 | 2.0 | 7.0 | 0.00 | 0.00 | 0.00 | 21 | 1012.0 |
| 20260505213547 | 83 | 146 | 2.0 | 6.0 | 0.00 | 0.00 | 0.00 | 23 | 1012.0 |
| 20260505213136 | 83 | 282 | 2.0 | 6.0 | 0.00 | 0.00 | 0.00 | 23 | 1012.1 |
| 20260505212542 | 83 | 330 | 2.0 | 6.0 | 0.00 | 0.00 | 0.00 | 22 | 1012.0 |
| 20260505212019 | 83 | 233 | 3.0 | 6.0 | 0.00 | 0.00 | 0.00 | 21 | 1012.2 |
| 20260505211554 | 82 | 282 | 2.0 | 4.0 | 0.00 | 0.00 | 0.00 | 24 | 1012.1 |
| 20260505211042 | 81 | 252 | 0.0 | 6.0 | 0.00 | 0.00 | 0.00 | 25 | 1012.0 |
| 20260505210523 | 82 | 136 | 2.0 | 6.0 | 0.00 | 0.00 | 0.00 | 21 | 1012.2 |
| 20260505210118 | 82 | 62 | 1.0 | 8.0 | 0.00 | 0.00 | 0.00 | 22 | 1012.3 |
| 20260505205552 | 82 | 123 | 3.0 | 8.0 | 0.00 | 0.00 | 0.00 | 21 | 1012.4 |
| 20260505205025 | 82 | 313 | 3.0 | 7.0 | 0.00 | 0.00 | 0.00 | 20 | 1012.5 |
| 20260505204604 | 83 | 188 | 3.0 | 7.0 | 0.00 | 0.00 | 0.00 | 20 | 1012.5 |
| 20260505204030 | 83 | 234 | 2.0 | 7.0 | 0.00 | 0.00 | 0.00 | 23 | 1012.7 |
| 20260505203527 | 83 | 233 | 1.0 | 7.0 | 0.00 | 0.00 | 0.00 | 21 | 1012.5 |
| 20260505203111 | 82 | 323 | 1.0 | 7.0 | 0.00 | 0.00 | 0.00 | 23 | 1012.3 |
| 20260505202531 | 81 | 192 | 3.0 | 7.0 | 0.00 | 0.00 | 0.00 | 23 | 1012.5 |
| 20260505202046 | 82 | 171 | 2.0 | 8.0 | 0.00 | 0.00 | 0.00 | 21 | 1012.6 |
| 20260505201612 | 82 | 295 | 2.0 | 5.0 | 0.00 | 0.00 | 0.00 | 22 | 1012.6 |
| 20260505201041 | 82 | 284 | 3.0 | 5.0 | 0.00 | 0.00 | 0.00 | 22 | 1012.6 |
| 20260505200807 | 82 | 360 | 1.0 | 5.0 | 0.00 | 0.00 | 0.00 | 20 | 1012.6 |
| 20260505200127 | 81 | 151 | 1.0 | 5.0 | 0.00 | 0.00 | 0.00 | 22 | 1012.8 |
| 20260505195537 | 81 | 162 | 1.0 | 9.0 | 0.00 | 0.00 | 0.00 | 23 | 1012.9 |
| 20260505195024 | 81 | 290 | 3.0 | 9.0 | 0.00 | 0.00 | 0.00 | 20 | 1012.9 |
| 20260505194711 | 81 | 241 | 1.0 | 8.0 | 0.00 | 0.00 | 0.00 | 23 | 1012.9 |
| 20260505194032 | 81 | 244 | 1.0 | 8.0 | 0.00 | 0.00 | 0.00 | 20 | 1013.0 |
| 20260505193525 | 81 | 28 | 1.0 | 6.0 | 0.00 | 0.00 | 0.00 | 23 | 1013.0 |
| 20260505193209 | 81 | 202 | 2.0 | 8.0 | 0.00 | 0.00 | 0.00 | 23 | 1012.9 |
| 20260505192536 | 81 | 5 | 2.0 | 5.0 | 0.00 | 0.00 | 0.00 | 23 | 1013.0 |
| 20260505192031 | 81 | 219 | 2.0 | 5.0 | 0.00 | 0.00 | 0.00 | 23 | 1013.0 |
| 20260505191629 | 80 | 27 | 1.0 | 8.0 | 0.00 | 0.00 | 0.00 | 23 | 1013.0 |
| 20260505191033 | 80 | 50 | 2.0 | 8.0 | 0.00 | 0.00 | 0.00 | 24 | 1012.9 |
| 20260505190525 | 80 | 269 | 1.0 | 7.0 | 0.00 | 0.00 | 0.00 | 24 | 1013.0 |
| 20260505190226 | 79 | 98 | 0.0 | 4.0 | 0.00 | 0.00 | 0.00 | 23 | 1012.9 |
| 20260505185541 | 79 | 339 | 2.0 | 6.0 | 0.00 | 0.00 | 0.00 | 28 | 1012.9 |
| 20260505185045 | 79 | 72 | 2.0 | 6.0 | 0.00 | 0.00 | 0.00 | 29 | 1013.0 |
| 20260505184610 | 78 | 44 | 1.0 | 4.0 | 0.00 | 0.00 | 0.00 | 26 | 1013.0 |
| 20260505184025 | 78 | 72 | 2.0 | 4.0 | 0.00 | 0.00 | 0.00 | 29 | 1013.3 |
| 20260505183544 | 78 | 311 | 1.0 | 4.0 | 0.00 | 0.00 | 0.00 | 33 | 1013.0 |
| 20260505183137 | 77 | 305 | 1.0 | 4.0 | 0.00 | 0.00 | 0.00 | 34 | 1013.2 |
| 20260505182524 | 77 | 30 | 1.0 | 4.0 | 0.00 | 0.00 | 0.00 | 35 | 1013.1 |
| 20260505182033 | 76 | 27 | 1.0 | 4.0 | 0.00 | 0.00 | 0.00 | 33 | 1013.1 |
| 20260505181631 | 76 | 14 | 1.0 | 4.0 | 0.00 | 0.00 | 0.00 | 35 | 1013.0 |
| 20260505181044 | 76 | 36 | 0.0 | 4.0 | 0.00 | 0.00 | 0.00 | 35 | 1013.1 |
| 20260505180531 | 75 | 15 | 1.0 | 5.0 | 0.00 | 0.00 | 0.00 | 36 | 1013.1 |
| 20260505180141 | 75 | 66 | 1.0 | 5.0 | 0.00 | 0.00 | 0.00 | 38 | 1013.1 |
| 20260505175541 | 75 | 57 | 1.0 | 5.0 | 0.00 | 0.00 | 0.00 | 35 | 1013.1 |
| 20260505175045 | 75 | 44 | 1.0 | 5.0 | 0.00 | 0.00 | 0.00 | 36 | 1013.1 |
| 20260505174606 | 74 | 51 | 1.0 | 4.0 | 0.00 | 0.00 | 0.00 | 38 | 1013.3 |
| 20260505174042 | 73 | 72 | 1.0 | 4.0 | 0.00 | 0.00 | 0.00 | 38 | 1013.2 |
| 20260505173540 | 73 | 21 | 1.0 | 4.0 | 0.00 | 0.00 | 0.00 | 41 | 1013.3 |
| 20260505173159 | 73 | 59 | 2.0 | 4.0 | 0.00 | 0.00 | 0.00 | 39 | 1013.3 |
| 20260505172545 | 72 | 32 | 0.0 | 4.0 | 0.00 | 0.00 | 0.00 | 40 | 1013.3 |
| 20260505172025 | 72 | 102 | 0.0 | 4.0 | 0.00 | 0.00 | 0.00 | 42 | 1013.4 |
| 20260505171629 | 72 | 40 | 1.0 | 3.0 | 0.00 | 0.00 | 0.00 | 42 | 1013.4 |
| 20260505171048 | 72 | 62 | 0.0 | 3.0 | 0.00 | 0.00 | 0.00 | 42 | 1013.5 |
| 20260505170545 | 72 | 44 | 1.0 | 3.0 | 0.00 | 0.00 | 0.00 | 40 | 1013.5 |
| 20260505170200 | 72 | 56 | 1.0 | 3.0 | 0.00 | 0.00 | 0.00 | 42 | 1013.4 |
| 20260505165533 | 71 | 80 | 1.0 | 3.0 | 0.00 | 0.00 | 0.00 | 40 | 1013.4 |
| 20260505165037 | 71 | 40 | 1.0 | 3.0 | 0.00 | 0.00 | 0.00 | 40 | 1013.5 |
| 20260505164726 | 70 | 90 | 1.0 | 3.0 | 0.00 | 0.00 | 0.00 | 42 | 1013.4 |
| 20260505164030 | 70 | 13 | 1.0 | 3.0 | 0.00 | 0.00 | 0.00 | 40 | 1013.4 |
| 20260505163541 | 69 | 148 | 1.0 | 3.0 | 0.00 | 0.00 | 0.00 | 43 | 1013.6 |
| 20260505163144 | 69 | 34 | 1.0 | 3.0 | 0.00 | 0.00 | 0.00 | 44 | 1013.6 |
| 20260505162547 | 68 | 50 | 0.0 | 3.0 | 0.00 | 0.00 | 0.00 | 41 | 1013.4 |
| 20260505162037 | 68 | 183 | 1.0 | 3.0 | 0.00 | 0.00 | 0.00 | 41 | 1013.5 |
| 20260505161653 | 68 | 65 | 0.0 | 2.0 | 0.00 | 0.00 | 0.00 | 44 | 1013.5 |
| 20260505161037 | 67 | 182 | 0.0 | 3.0 | 0.00 | 0.00 | 0.00 | 43 | 1013.6 |
| 20260505160547 | 67 | 171 | 0.0 | 4.0 | 0.00 | 0.00 | 0.00 | 43 | 1013.6 |
| 20260505160115 | 66 | 18 | 0.0 | 3.0 | 0.00 | 0.00 | 0.00 | 45 | 1013.5 |
| 20260505153202 | 61 | 39 | 0.0 | 2.0 | 0.00 | 0.00 | 0.00 | 49 | 1013.4 |